Regional Weather Roundup
Issued by NWS

Home | Current Version | Previous Version | Text Only | Print | Product List | Glossary On
Versions: 1 2 3 4 5 6 7 8 9 10 11 12 13 14 15 16 17 18 19 20 21 22 23 24 25 26 27 28 29 30 31 32 33 34 35 36 37 38 39 40 41 42 43 44 45 46 47 48 49 50
000
ASUS43 KLOT 192303
RWRIL

ILLINOIS REGIONAL WEATHER ROUNDUP
NATIONAL WEATHER SERVICE CHICAGO/ROMEOVILLE IL
500 PM CST SUN NOV 19 2017

NOTE: "FAIR" INDICATES FEW OR NO CLOUDS BELOW 12,000 FEET WITH NO
SIGNIFICANT WEATHER AND/OR OBSTRUCTIONS TO VISIBILITY.

* THESE STATIONS ARE NOT UNDER NWS QUALITY CONTROL. THEY ALSO MAY NOT
  REPORT WEATHER SUCH AS PRECIPITATION OR FOG.

ILZ001-002-007-009-015-016-024-200000-
NORTHWEST ILLINOIS

CITY           SKY/WX    TMP DP  RH WIND       PRES   REMARKS
MOLINE         CLEAR     34  20  56 SW6       30.09F WCI  29
STERLING*        N/A    N/A N/A N/A MISG      30.09F
SAVANNA*       CLEAR     32  19  60 SW5       30.08S WCI  27
$$

ILZ003-004-008-010-011-017-018-200000-
NORTH CENTRAL ILLINOIS

CITY           SKY/WX    TMP DP  RH WIND       PRES   REMARKS
ROCKFORD       PTCLDY    31  18  58 W6        30.08S WCI  25
FREEPORT*      CLEAR     30  19  62 W6        30.07S WCI  24
ROCHELLE*      CLEAR     29  22  74 W9        30.07F WCI  21
DE KALB*       CLEAR     31  20  64 W10       30.06F WCI  22
PERU*          CLEAR     29  19  67 W6        30.10F WCI  23
$$

ILZ005-006-012>014-019>023-200000-
NORTHEAST ILLINOIS

CITY           SKY/WX    TMP DP  RH WIND       PRES   REMARKS
CHICAGO-OHARE  PTCLDY    33  16  49 W10       30.05S WCI  25
CHICAGO-MIDWAY PTCLDY    33  17  51 W10       30.06S WCI  25
AURORA         CLEAR     30  22  72 W10       30.06F WCI  21
LANSING*       PTCLDY    32  22  65 W9        30.08R WCI  24
JOLIET*        CLEAR     33  21  62 W3        30.08F
WAUKEGAN       CLOUDY    31  16  54 VRB3      30.02S
DUPAGE AIRPORT CLEAR     30  20  66 W6        30.05F WCI  24
KANKAKEE*      CLEAR     31  22  69 W9        30.11S WCI  23
WHEELING       PTCLDY    33  17  51 W9        30.06S WCI  25
MORRIS*        CLEAR     31  22  69 W8        30.08F WCI  23
ROMEOVILLE*    PTCLDY    31  22  68 W7        30.07F WCI  24
NORTHERLY ISL    N/A     34  18  52 W9          N/A  WCI  27
$$

LMZ740>746-200000-
SOUTHERN LAKE MICHIGAN

STATION/POSITION SKY/WX   TEMP    WIND        PRES    VSBY  WAVE
                          AIR SEA DIR/SP/G                  HT/PER
                          (F)     (DEG/KT/KT) (MB)    (MI)  (FT/S)
SOUTHERN BUOY              34 49  310/ 16/ 19 1016.7          4/ 7
HARRISON CRIB              35     270/ 19/ 21   N/A
BURNHAM HARBOR             34     260/ 12/ 15   N/A
CALUMET HARBOR             34     240/  7/ 12 1017.0R
BURNS HARBOR               36     270/ 18/ 20 1017.6S
MICHIGAN CITY              35     250/ 19/ 21   N/A
$$

ILZ025>027-034>036-040-047-049-050-058-095>099-200000-
WEST-CENTRAL ILLINOIS

CITY           SKY/WX    TMP DP  RH WIND       PRES   REMARKS
QUINCY         CLEAR     35  23  61 S5        30.14F WCI  31
GALESBURG*     CLEAR     32  23  69 SW5       30.13S WCI  27
MACOMB*        CLEAR     34  24  66 SW6       30.16S WCI  29
JACKSONVILLE*  CLEAR     35  22  59 CALM      30.16F
PITTSFIELD*    CLEAR     38  22  53 SW5       30.16F WCI  34
$$

ILZ028>032-037-038-041>044-048-051>054-059>061-200000-
CENTRAL ILLINOIS

CITY           SKY/WX    TMP DP  RH WIND       PRES   REMARKS
PONTIAC        CLEAR     32  25  75 W8        30.12F WCI  25
DECATUR        CLEAR     34  19  54 W8        30.15S WCI  27
PEORIA         CLEAR     34  19  54 W5        30.13F WCI  30
LACON*         CLEAR     32  19  58 W7        30.12F WCI  26
LINCOLN*       CLEAR     35  22  61 W3        30.15F HAZE
SPRINGFIELD    CLEAR     34  24  67 W6        30.16F WCI  29
TAYLORVILLE    CLEAR     33  23  65 W7        30.17R WCI  27
$$

ILZ033-039-045-046-055>057-062-063-200000-
EAST-CENTRAL ILLINOIS

CITY           SKY/WX    TMP DP  RH WIND       PRES   REMARKS
CHAMPAIGN      CLEAR     32  23  69 W9        30.14R WCI  24
DANVILLE*      CLEAR     31  22  67 W12       30.11R WCI  22
RANTOUL*       CLEAR     33  26  73 W9        30.13S WCI  25
MATTOON        CLEAR     32  23  69 W7        30.15R WCI  26
PARIS*         CLEAR     32  24  72 W9        30.16R WCI  24
$$

ILZ079-100>102-200000-
SOUTHWEST ILLINOIS

CITY           SKY/WX    TMP DP  RH WIND       PRES   REMARKS
ALTON          CLEAR     34  21  60 W7        30.19S WCI  28
BELLEVILLE     CLEAR     36  18  47 CALM      30.19S
CAHOKIA*       CLEAR     38  18  44 W5        30.20S WCI  34
SPARTA*        CLEAR     38  20  48 CALM      30.21S
$$

ILZ064>066-069>071-074>076-080>082-084>086-088>090-092>094-200000-
SOUTH-CENTRAL ILLINOIS

CITY           SKY/WX    TMP DP  RH WIND       PRES   REMARKS
CARBONDALE     CLEAR     36  19  50 CALM      30.20F
CAIRO*         CLEAR     40  24  52 CALM      30.21S
EFFINGHAM*     CLEAR     33  24  70 W6        30.20R WCI  27
MARION         CLEAR     39  18  41 NW6       30.21S WCI  35
MT. VERNON     CLEAR     37  20  50 W3        30.19F
CENTRALIA*     CLEAR     36  23  61 CALM      30.18F
SALEM*         CLEAR     36  20  52 W5        30.18S WCI  32
METROPOLIS*    CLEAR     39  22  49 W3        30.22R
$$

ILZ067-068-072-073-078-083-087-091-200000-
SOUTHEAST ILLINOIS

CITY           SKY/WX    TMP DP  RH WIND       PRES   REMARKS
LAWRENCEVILLE  CLEAR     36  21  54 W7        30.17S WCI  30
FLORA*         CLEAR     37  21  53 W5        30.14F WCI  33
FAIRFIELD*     CLEAR     37  21  53 CALM      30.18F
HARRISBURG*    CLEAR     37  23  56 NW7       30.21R WCI  31
ROBINSON*      CLEAR     32  22  66 W8        30.18R WCI  25
CARMI*         CLEAR     35  22  60 W8        30.19S WCI  29
$$

ABBREVIATIONS USED IN REMARKS
   TC - TEMPERATURE IN CELSIUS
  WCI - WIND CHILL INDEX
   HX - HEAT INDEX
  VSB - VISIBILITY
$$




USA.gov is the U.S. government's official web portal to all federal, state and local government web resources and services.